| time (UTC) | temp C | wind direction | speed KPH | gust KPH | rain 1hr cm | rain 24hr cm | rain mn cm | humidity % | barometer mb |
| 20260504081538 | 3 | 265 | 0.0 | 0.0 | 0.00 | 0.00 | 0.00 | 81 | 1012.9 |
| 20260504050020 | 5 | 265 | 0.0 | 0.0 | 0.00 | 0.00 | 0.00 | 75 | 1013.2 |
| 20260504044517 | 6 | 265 | 0.0 | 0.0 | 0.00 | 0.00 | 0.00 | 74 | 1013.1 |
| 20260504043016 | 6 | 265 | 0.0 | 0.0 | 0.00 | 0.00 | 0.00 | 74 | 1013.0 |
| 20260504041512 | 6 | 265 | 0.0 | 0.0 | 0.00 | 0.00 | 0.00 | 71 | 1012.9 |
| 20260504040024 | 6 | 265 | 0.0 | 0.0 | 0.00 | 0.00 | 0.00 | 70 | 1012.8 |
| 20260504034509 | 7 | 265 | 0.0 | 0.0 | 0.00 | 0.00 | 0.00 | 69 | 1012.8 |
| 20260504033008 | 7 | 265 | 0.0 | 0.0 | 0.00 | 0.00 | 0.00 | 68 | 1012.7 |
| 20260504031508 | 7 | 265 | 0.0 | 0.0 | 0.00 | 0.00 | 0.00 | 67 | 1012.7 |
| 20260504030009 | 7 | 265 | 0.0 | 0.0 | 0.00 | 0.00 | 0.00 | 66 | 1012.5 |
| 20260504024508 | 8 | 265 | 0.0 | 0.0 | 0.00 | 0.00 | 0.00 | 66 | 1012.5 |
| 20260504023006 | 8 | 265 | 0.0 | 0.0 | 0.00 | 0.00 | 0.00 | 64 | 1012.5 |
| 20260504021506 | 9 | 265 | 0.0 | 0.0 | 0.00 | 0.00 | 0.00 | 61 | 1012.6 |
| 20260504020005 | 10 | 265 | 0.0 | 0.0 | 0.00 | 0.00 | 0.00 | 58 | 1012.5 |
| 20260504014516 | 10 | 265 | 0.0 | 0.0 | 0.00 | 0.00 | 0.00 | 56 | 1012.4 |
| 20260504013005 | 11 | 265 | 0.0 | 0.0 | 0.00 | 0.00 | 0.00 | 52 | 1012.2 |
| 20260504011504 | 11 | 265 | 0.0 | 0.0 | 0.00 | 0.00 | 0.00 | 49 | 1012.1 |
| 20260504010004 | 12 | 265 | 0.0 | 0.0 | 0.00 | 0.00 | 0.00 | 49 | 1012.1 |
| 20260504004504 | 12 | 265 | 0.0 | 0.0 | 0.00 | 0.00 | 0.00 | 46 | 1011.9 |
| 20260504003008 | 13 | 265 | 0.0 | 0.0 | 0.00 | 0.00 | 0.00 | 43 | 1011.8 |
| 20260504001503 | 13 | 265 | 0.0 | 0.0 | 0.00 | 0.00 | 0.00 | 42 | 1011.5 |
| 20260504000004 | 14 | 294 | 1.6 | 0.0 | 0.00 | 0.00 | 0.00 | 39 | 1011.4 |
| 20260503234505 | 14 | 279 | 1.6 | 0.0 | 0.00 | 0.00 | 0.00 | 38 | 1011.2 |
| 20260503233002 | 15 | 252 | 3.2 | 0.0 | 0.00 | 0.00 | 0.00 | 37 | 1011.1 |
| 20260503231502 | 15 | 256 | 4.8 | 0.0 | 0.00 | 0.00 | 0.00 | 35 | 1011.1 |
| 20260503230104 | 15 | 261 | 3.2 | 0.0 | 0.00 | 0.00 | 0.00 | 36 | 1011.2 |
| 20260503224600 | 16 | 233 | 6.4 | 0.0 | 0.00 | 0.00 | 0.00 | 34 | 1011.0 |
| 20260503223100 | 16 | 240 | 6.4 | 0.0 | 0.00 | 0.00 | 0.00 | 33 | 1011.0 |
| 20260503221559 | 16 | 350 | 6.4 | 0.0 | 0.00 | 0.00 | 0.00 | 32 | 1011.0 |
| 20260503220059 | 16 | 270 | 4.8 | 0.0 | 0.00 | 0.00 | 0.00 | 32 | 1011.0 |
| 20260503214558 | 16 | 277 | 4.8 | 0.0 | 0.00 | 0.00 | 0.00 | 31 | 1011.0 |
| 20260503213058 | 16 | 213 | 8.0 | 0.0 | 0.00 | 0.00 | 0.00 | 32 | 1011.0 |
| 20260503211558 | 16 | 325 | 8.0 | 0.0 | 0.00 | 0.00 | 0.00 | 31 | 1010.9 |
| 20260503210056 | 16 | 183 | 8.0 | 0.0 | 0.00 | 0.00 | 0.00 | 33 | 1010.9 |
| 20260503204556 | 16 | 250 | 8.0 | 0.0 | 0.00 | 0.00 | 0.00 | 33 | 1010.8 |
| 20260503203056 | 16 | 294 | 3.2 | 0.0 | 0.00 | 0.00 | 0.00 | 32 | 1011.1 |
| 20260503201555 | 16 | 207 | 8.0 | 0.0 | 0.00 | 0.00 | 0.00 | 32 | 1011.2 |
| 20260503200059 | 16 | 208 | 6.4 | 0.0 | 0.00 | 0.00 | 0.00 | 34 | 1011.4 |
| 20260503194551 | 15 | 273 | 6.4 | 0.0 | 0.00 | 0.00 | 0.00 | 32 | 1011.5 |
| 20260503193059 | 15 | 267 | 6.4 | 0.0 | 0.00 | 0.00 | 0.00 | 33 | 1011.8 |
| 20260503191549 | 15 | 156 | 6.4 | 0.0 | 0.00 | 0.00 | 0.00 | 33 | 1011.9 |
| 20260503190047 | 14 | 274 | 6.4 | 0.0 | 0.00 | 0.00 | 0.00 | 32 | 1012.1 |
| 20260503184546 | 14 | 305 | 6.4 | 0.0 | 0.00 | 0.00 | 0.00 | 33 | 1012.4 |
| 20260503183105 | 14 | 260 | 6.4 | 0.0 | 0.00 | 0.00 | 0.00 | 36 | 1012.5 |
| 20260503181603 | 14 | 341 | 6.4 | 0.0 | 0.00 | 0.00 | 0.00 | 36 | 1012.6 |
| 20260503180043 | 13 | 169 | 4.8 | 0.0 | 0.00 | 0.00 | 0.00 | 37 | 1012.6 |
| 20260503174542 | 13 | 266 | 6.4 | 0.0 | 0.00 | 0.00 | 0.00 | 38 | 1012.8 |
| 20260503173040 | 13 | 322 | 8.0 | 0.0 | 0.00 | 0.00 | 0.00 | 35 | 1012.8 |
| 20260503171538 | 12 | 188 | 8.0 | 0.0 | 0.00 | 0.00 | 0.00 | 39 | 1013.0 |